sat.trackr.live / text

‹ back to catalog

RAPTOR4

NORAD 58956 · 2024-028B

PAYLOAD ACTIVE UNKNOWN

§ Identity

Operator
Country
US
Launch date
2024-02-14
Launch site
AFETR
Launch vehicle
Mass (kg)
RCS (m²)

External: N2YO · Heavens-Above · Gunter

§ Orbital elements

Epoch: 2026-09-22T11:43:13.653408Z

Period
104.77 min
Inclination
39.9914°
Eccentricity
0.0013604
Mean motion
13.74397166 rev/d
Perigee alt
973.8 km
Apogee alt
993.8 km
Semi-major
7,362.0 km
B*
4.9165e-5
RAAN
315.6844°
Arg perigee
83.8591°
Mean anomaly
276.3707°
Rev number
13,042

§ Raw data

RAPTOR41 58956U 24028B   26265.48835247 -.00000032  00000+0  49165-4 0  99952 58956  39.9914 315.6844 0013604  83.8591 276.3707 13.74397166130428

JSON: /api/v1/satellites/58956 · /tle

For live sub-satellite position, see the globe view (requires WebGL).

§ Visibility from observer

Set your observer location to see the next 7 days of passes ≥ 10°. The values pass through the URL so the page stays shareable.

No JS? Fill the form by hand. The geolocation button needs JavaScript.